Weather History for Praha / Ruzyne, Czech Republic

Change the Weather History Date:

Saturday, January 11, 2014

  Actual Average Record
Temperature  
Mean Temperature 38 °F -  
Max Temperature 43 °F 34 °F - ()
Min Temperature 32 °F 23 °F - ()
Degree Days  
Heating Degree Days 28    
Moisture  
Dew Point 33 °F    
Average Humidity 80    
Maximum Humidity 93    
Minimum Humidity 59    
Precipitation  
Precipitation 0.00 in 0.03 in - ()
Sea Level Pressure  
Sea Level Pressure 30.03 in    
Wind  
Wind Speed 11 mph ()    
Max Wind Speed 24 mph    
Max Gust Speed 36 mph    
Visibility 11.5 miles    
Events Rain    
T = Trace of Precipitation, MM = Missing Value Source: Averaged Metar Reports

Daily Weather History Graph

Daily Weather History Graph

Search for Another Location

Airport:

Trip Planner

Search our weather history database for the weather conditions in past years. The results will help you decide how hot, cold, wet, or windy it might be!

Date:

Astronomy

Jan. 11, 2014 Rise Set
Actual Time 7:58 AM CET 4:23 PM CET
Civil Twilight 7:21 AM CET 5:00 PM CET
Nautical Twilight 6:40 AM CET 5:41 PM CET
Astronomical Twilight 6:01 AM CET 6:20 PM CET
Moon 1:00 PM CET (1/11) 3:40 AM CET (1/11)
Length of Visible Light 9h 39m
Length of Day
8h 24m
Waxing Gibbous, 81% of the Moon is Illuminated
Jan 11
Waxing Gibbous
Jan 16
Full
Jan 24
Last Quarter
Jan 30
New
Feb 6
First Quarter

Hourly Weather History & Observations

Time (CET) Temp. Windchill Dew Point Humidity Pressure Visibility Wind Dir Wind Speed Gust Speed Precip Events Conditions
12:00 AM 37 °F - 32 °F 77% 30.12 in 22 mi SW 13.4 mph - -   Mostly Cloudy
12:00 AM 37.4 °F 28.9 °F 32.0 °F 81% 30.06 in - SW 13.8 mph - N/A   Clear
12:30 AM 37.4 °F 28.9 °F 32.0 °F 81% 30.06 in - SW 13.8 mph - N/A   Clear
1:00 AM 37 °F - 32 °F 77% 30.11 in 19 mi WSW 13.4 mph - -   Mostly Cloudy
1:00 AM 37.4 °F 28.2 °F 32.0 °F 81% 30.04 in - SW 16.1 mph - N/A   Clear
1:30 AM 35.6 °F 26.6 °F 32.0 °F 87% 30.04 in - SW 13.8 mph - N/A   Clear
2:00 AM 36 °F - 31 °F 76% 30.12 in 19 mi WSW 11.2 mph - -   Scattered Clouds
2:00 AM 35.6 °F 27.1 °F 32.0 °F 87% 30.06 in - SW 12.7 mph - N/A   Clear
2:30 AM 35.6 °F 28.0 °F 30.2 °F 81% 30.06 in - SW 10.4 mph - N/A   Clear
3:00 AM 35 °F - 32 °F 83% 30.12 in 19 mi WSW 13.4 mph - -   Scattered Clouds
3:00 AM 35.6 °F 27.5 °F 32.0 °F 87% 30.06 in - SW 11.5 mph - N/A   Clear
3:30 AM 35.6 °F 28.6 °F 32.0 °F 87% 30.06 in - WSW 9.2 mph - N/A   Clear
4:00 AM 34 °F - 31 °F 83% 30.12 in 19 mi SW 8.9 mph - -   Scattered Clouds
4:00 AM 33.8 °F 26.4 °F 30.2 °F 87% 30.04 in - SW 9.2 mph - N/A   Clear
4:30 AM 33.8 °F 27.7 °F 30.2 °F 87% 30.04 in - SSW 6.9 mph - N/A   Clear
5:00 AM 33 °F - 31 °F 88% 30.11 in 12 mi SW 11.2 mph - -   Clear
5:00 AM 33.8 °F 25.8 °F 30.2 °F 87% 30.04 in - SSW 10.4 mph - N/A   Clear
5:30 AM 33.8 °F 25.8 °F 30.2 °F 87% 30.04 in - SSW 10.4 mph - N/A   Clear
6:00 AM 33 °F - 31 °F 88% 30.11 in 12 mi SW 11.2 mph - -   Scattered Clouds
6:00 AM 33.8 °F 26.4 °F 30.2 °F 87% 30.04 in - SSW 9.2 mph - N/A   Clear
6:30 AM 33.8 °F 25.8 °F 30.2 °F 87% 30.04 in - SSW 10.4 mph - N/A   Clear
7:00 AM 33 °F - 31 °F 87% 30.11 in 9 mi SW 11.2 mph - -   Scattered Clouds
7:00 AM 33.8 °F 25.8 °F 30.2 °F 87% 30.04 in - SSW 10.4 mph - N/A   Clear
7:30 AM 33.8 °F 27.0 °F 30.2 °F 87% 30.04 in - SSW 8.1 mph - N/A   Clear
8:00 AM 33 °F - 30 °F 86% 30.10 in 16 mi SSW 11.2 mph - -   Scattered Clouds
8:00 AM 33.8 °F 26.4 °F 30.2 °F 87% 30.04 in - SSW 9.2 mph - N/A   Clear
8:30 AM 33.8 °F 25.8 °F 32.0 °F 93% 30.04 in - SSW 10.4 mph - N/A   Clear
9:00 AM 34 °F - 31 °F 84% 30.11 in 16 mi SW 11.2 mph - -   Scattered Clouds
9:00 AM 33.8 °F 25.3 °F 30.2 °F 87% 30.04 in - SSW 11.5 mph - N/A   Clear
9:30 AM 33.8 °F 26.4 °F 32.0 °F 93% 30.04 in - SSW 9.2 mph - N/A   Clear
10:00 AM 36 °F - 32 °F 80% 30.10 in 12 mi SSW 8.9 mph - -   Scattered Clouds
10:00 AM 35.6 °F 29.2 °F 32.0 °F 87% 30.04 in - South 8.1 mph - N/A   Clear
10:30 AM 37.4 °F 30.8 °F 32.0 °F 81% 30.04 in - South 9.2 mph - N/A   Clear
11:00 AM 39 °F - 33 °F 71% 30.08 in 16 mi SSW 11.2 mph - -   Scattered Clouds
11:00 AM 39.2 °F 33.0 °F 33.8 °F 81% 30.04 in - South 9.2 mph - N/A   Clear
11:30 AM 41.0 °F 35.2 °F 33.8 °F 76% 30.04 in - SSW 9.2 mph - N/A   Clear
12:00 PM 40 °F - 33 °F 67% 30.06 in 16 mi SSW 6.7 mph - -   Partly Cloudy
12:00 PM 41.0 °F 36.4 °F 33.8 °F 76% 30.01 in - SSW 6.9 mph - N/A   Clear
12:30 PM 41.0 °F 39.0 °F 33.8 °F 76% 30.01 in - South 3.5 mph - N/A   Clear
1:00 PM 42 °F - 33 °F 59% 30.03 in 25 mi SSW 11.2 mph - -   Mostly Cloudy
1:00 PM 41.0 °F 37.1 °F 32.0 °F 70% 29.98 in - South 5.8 mph - N/A   Clear
1:30 PM 42.8 °F 39.3 °F 33.8 °F 70% 29.98 in - South 5.8 mph - N/A   Clear
2:00 PM 42 °F - 34 °F 64% 30.03 in 25 mi SW 4.5 mph - -   Scattered Clouds
2:00 PM 42.8 °F 40.1 °F 33.8 °F 70% 29.98 in - SSW 4.6 mph - N/A   Clear
2:30 PM 41.0 °F 37.1 °F 33.8 °F 76% 29.98 in - SSW 5.8 mph - N/A   Clear
3:00 PM 42 °F - 34 °F 65% 30.02 in 25 mi SSW 6.7 mph - -   Scattered Clouds
3:00 PM 42.8 °F 40.1 °F 33.8 °F 70% 29.98 in - South 4.6 mph - N/A   Clear
3:30 PM 41.0 °F 36.4 °F 33.8 °F 76% 29.98 in - WSW 6.9 mph - N/A   Clear
3:57 PM 41.0 °F 34.7 °F 33.8 °F 76% 29.98 in 6.2 mi SW 10.4 mph - N/A Rain Light Rain
4:00 PM 40 °F - 33 °F 69% 30.02 in 19 mi SW 6.7 mph - - Rain Light Rain
4:00 PM 41.0 °F 34.7 °F 33.8 °F 76% 29.98 in 6.2 mi SW 10.4 mph - N/A Rain Light Rain
4:30 PM 39.2 °F 33.6 °F 33.8 °F 81% 29.98 in 6.2 mi SSW 8.1 mph - N/A   Mostly Cloudy
5:00 PM 39 °F - 35 °F 78% 30.00 in 25 mi South 8.9 mph - - Rain Light Rain
5:00 PM 39.2 °F 33.6 °F 33.8 °F 81% 29.95 in 6.2 mi South 8.1 mph - N/A   Scattered Clouds
5:30 PM 39.2 °F 33.0 °F 33.8 °F 81% 29.95 in - SSW 9.2 mph - N/A   Clear
6:00 PM 40 °F - 34 °F 72% 30.00 in 25 mi SW 11.2 mph - -   Scattered Clouds
6:00 PM 39.2 °F 32.0 °F 33.8 °F 81% 29.95 in 6.2 mi SW 11.5 mph - N/A   Partly Cloudy
6:30 PM 39.2 °F 31.2 °F 33.8 °F 81% 29.95 in - SW 13.8 mph - N/A   Clear
7:00 PM 40 °F - 34 °F 73% 29.99 in 22 mi SW 11.2 mph - -   Partly Cloudy
7:00 PM 39.2 °F 31.2 °F 33.8 °F 81% 29.95 in - SW 13.8 mph - N/A   Clear
7:30 PM 39.2 °F 29.6 °F 33.8 °F 81% 29.95 in - SW 19.6 mph - N/A   Clear
8:00 PM 39 °F - 34 °F 77% 29.99 in 19 mi WSW 22.4 mph - -   Mostly Cloudy
8:00 PM 39.2 °F 29.0 °F 33.8 °F 81% 29.95 in - SW 21.9 mph - N/A   Clear
8:30 PM 39.2 °F 28.5 °F 33.8 °F 81% 29.95 in - SW 24.2 mph - N/A   Clear
9:00 PM 39 °F - 35 °F 79% 30.00 in 19 mi SW 20.1 mph - -   Mostly Cloudy
9:00 PM 39.2 °F 28.7 °F 33.8 °F 81% 29.95 in - SW 23.0 mph - N/A   Clear
9:23 PM 39.2 °F 29.6 °F 33.8 °F 81% 29.98 in 6.2 mi WSW 19.6 mph - N/A Rain Light Rain
9:30 PM 39.2 °F 29.6 °F 35.6 °F 87% 29.98 in 6.2 mi WSW 19.6 mph - N/A   Partly Cloudy
10:00 PM 39 °F - 35 °F 79% 30.03 in 19 mi WSW 20.1 mph - - Rain Light Rain
10:00 PM 39.2 °F 29.0 °F 35.6 °F 87% 29.98 in 6.2 mi WSW 21.9 mph - N/A   Scattered Clouds
10:30 PM 39.2 °F 29.8 °F 33.8 °F 81% 29.98 in - WSW 18.4 mph - N/A   Clear
11:00 PM 39 °F - 35 °F 80% 30.06 in 2 mi West 17.9 mph - - Rain Light Rain Showers
11:00 PM 39.2 °F 30.2 °F 35.6 °F 87% 30.01 in 2.5 mi West 17.3 mph 35.7 mph N/A Rain Light Rain Showers
11:06 PM 39.2 °F 29.3 °F 33.8 °F 81% 30.04 in 6.2 mi West 20.7 mph 35.7 mph N/A   Partly Cloudy
11:23 PM 39.2 °F 30.2 °F 32.0 °F 75% 30.04 in 6.2 mi West 17.3 mph 28.8 mph N/A   Scattered Clouds
11:30 PM 37.4 °F 27.8 °F 32.0 °F 81% 30.04 in 6.2 mi West 17.3 mph 28.8 mph N/A   Scattered Clouds